Precipitable_Water
1.25 1.25 1.30 1.34 1.37 1.40 1.43 1.52 1.55 1.61 1.55 1.54 1.53 1.59 1.54 1.45 1.48 1.61 1.69 1.61 1.56 1.48 1.47 1.42 1.44 1.44 1.46 1.46 1.44 1.41 1.38 1.36 1.38 1.35 1.32 1.30 1.29 1.23 1.17 1.16 1.14 1.12 1.12 1.07 1.09 1.09 1.06 1.03 1.04 1.04 1.09 1.14 1.16 1.10 1.06 1.06 1.10 1.12 1.16 1.14 1.09 1.11 1.08 0.99 0.84 0.84 0.87 0.90 0.90 0.94 1.01 1.02 1.01 1.12 1.11 1.10 1.08 1.09 1.11 1.12 1.14 1.10 1.06 1.02 1.01
1.25 1.30 1.32 1.34 1.36 1.39 1.43 1.50 1.49 1.50 1.48 1.53 1.54 1.53 1.44 1.42 1.50 1.63 1.70 1.73 1.64 1.53 1.46 1.45 1.48 1.52 1.51 1.47 1.44 1.43 1.41 1.37 1.32 1.33 1.28 1.27 1.26 1.27 1.23 1.18 1.14 1.10 1.08 1.06 1.11 1.13 1.10 1.03 1.03 1.07 1.11 1.19 1.19 1.05 1.05 1.08 1.07 1.06 1.05 1.04 1.05 1.09 1.13 1.07 0.91 0.87 0.81 0.85 0.83 0.92 0.89 0.95 0.89 1.01 1.01 1.02 1.01 1.06 1.05 1.03 1.04 1.06 1.06 1.06 1.04
1.39 1.38 1.35 1.34 1.35 1.40 1.43 1.43 1.45 1.48 1.49 1.52 1.48 1.43 1.43 1.44 1.53 1.61 1.83 1.77 1.67 1.52 1.42 1.44 1.49 1.52 1.53 1.52 1.50 1.43 1.40 1.34 1.34 1.30 1.32 1.32 1.28 1.23 1.20 1.22 1.23 1.18 1.13 1.11 1.11 1.12 1.08 1.06 1.06 1.14 1.17 1.09 1.07 1.08 1.09 1.06 1.10 1.03 0.97 0.98 0.95 1.00 1.05 1.08 0.98 0.83 0.80 0.79 0.86 0.81 0.81 0.84 0.84 0.84 0.90 0.95 0.98 0.99 1.00 1.04 1.04 1.03 1.03 1.03 1.03
1.51 1.47 1.40 1.36 1.39 1.43 1.47 1.49 1.48 1.48 1.44 1.47 1.48 1.46 1.44 1.47 1.52 1.62 1.77 1.78 1.70 1.52 1.45 1.47 1.49 1.50 1.47 1.49 1.49 1.45 1.42 1.39 1.34 1.33 1.32 1.32 1.27 1.22 1.19 1.20 1.22 1.20 1.13 1.08 1.07 1.07 1.04 1.04 1.10 1.11 1.08 1.02 1.05 1.06 1.11 1.17 1.13 1.08 1.05 1.03 0.99 1.03 1.03 1.02 1.04 0.90 0.86 0.79 0.84 0.84 0.82 0.76 0.78 0.84 0.88 0.92 0.90 0.90 0.94 0.99 1.04 1.00 0.99 0.99 1.01
1.52 1.60 1.53 1.46 1.50 1.52 1.54 1.54 1.51 1.56 1.62 1.62 1.53 1.38 1.42 1.53 1.59 1.53 1.53 1.51 1.60 1.54 1.37 1.35 1.31 1.35 1.38 1.42 1.47 1.45 1.41 1.39 1.36 1.35 1.35 1.31 1.27 1.24 1.25 1.24 1.21 1.19 1.16 1.12 1.09 1.08 1.06 1.07 1.10 1.10 1.08 1.02 1.04 1.08 1.12 1.13 1.11 1.11 1.08 1.06 1.03 1.03 1.00 0.99 1.01 1.03 0.92 0.83 0.84 0.92 0.90 0.89 0.92 0.87 0.86 0.80 0.82 0.89 0.96 0.95 0.93 0.95 0.98 1.05 1.06
1.51 1.63 1.72 1.69 1.74 1.69 1.68 1.71 1.75 1.77 1.75 1.64 1.42 1.33 1.38 1.42 1.50 1.51 1.42 1.42 1.48 1.49 1.30 1.19 1.22 1.32 1.38 1.41 1.43 1.45 1.42 1.40 1.39 1.37 1.33 1.30 1.27 1.25 1.28 1.29 1.25 1.22 1.20 1.17 1.16 1.16 1.12 1.10 1.12 1.10 1.07 1.05 1.06 1.11 1.14 1.12 1.17 1.18 1.15 1.13 1.12 1.10 1.07 1.05 1.04 0.98 0.93 0.90 0.91 0.92 0.98 0.94 0.89 0.89 0.86 0.83 0.82 0.86 0.90 0.91 0.93 0.97 1.01 1.02 1.04
1.64 1.61 1.61 1.66 1.74 1.70 1.68 1.62 1.66 1.81 1.87 1.85 1.46 1.20 1.27 1.29 1.33 1.38 1.33 1.28 1.28 1.28 1.26 1.16 1.19 1.30 1.32 1.31 1.33 1.37 1.39 1.41 1.41 1.40 1.34 1.27 1.24 1.24 1.27 1.30 1.29 1.26 1.24 1.21 1.22 1.23 1.22 1.19 1.15 1.12 1.10 1.13 1.16 1.19 1.19 1.18 1.18 1.21 1.35 1.33 1.28 1.06 1.03 1.05 1.10 1.10 1.04 0.99 0.99 1.03 0.99 1.02 1.01 0.88 0.90 0.90 0.90 0.93 0.91 0.91 0.93 0.98 0.99 0.97 0.93
1.62 1.59 1.63 1.68 1.74 1.62 1.59 1.61 1.64 1.66 1.69 1.82 1.56 1.22 1.17 1.17 1.25 1.26 1.32 1.26 1.22 1.24 1.19 1.11 1.10 1.21 1.27 1.29 1.32 1.37 1.41 1.44 1.47 1.45 1.39 1.30 1.28 1.28 1.28 1.30 1.31 1.29 1.29 1.30 1.28 1.28 1.27 1.23 1.21 1.21 1.22 1.24 1.24 1.27 1.29 1.25 1.22 1.16 1.16 1.14 1.15 1.06 0.92 0.87 0.95 0.97 0.93 0.89 0.89 0.90 0.90 0.87 0.92 1.00 0.98 0.92 0.89 0.98 1.01 0.90 0.80 0.80 0.86 0.93 0.93
1.60 1.63 1.72 1.78 1.76 1.70 1.64 1.65 1.72 1.70 1.76 1.93 1.69 1.40 1.18 1.09 1.12 1.21 1.25 1.15 1.16 1.16 1.11 1.03 1.01 1.10 1.20 1.24 1.28 1.34 1.37 1.38 1.43 1.44 1.35 1.30 1.30 1.30 1.29 1.30 1.31 1.30 1.30 1.34 1.35 1.38 1.42 1.34 1.27 1.28 1.28 1.30 1.32 1.28 1.24 1.23 1.19 1.15 1.16 1.14 1.07 0.98 0.92 0.84 0.94 1.01 0.96 0.87 0.85 0.92 0.98 0.98 1.02 0.96 0.88 0.84 0.79 0.79 0.82 0.80 0.81 0.90 0.92 0.91 0.91
1.62 1.67 1.73 1.72 1.75 1.78 1.79 1.79 1.74 1.68 1.67 1.77 1.64 1.37 1.23 1.13 1.10 1.07 1.08 1.08 1.10 1.10 1.13 1.10 1.04 1.04 1.11 1.22 1.27 1.32 1.34 1.39 1.43 1.41 1.36 1.32 1.32 1.31 1.31 1.28 1.30 1.31 1.31 1.35 1.38 1.37 1.34 1.38 1.32 1.24 1.27 1.29 1.40 1.45 1.44 1.42 1.38 1.29 1.23 1.17 1.09 0.98 0.89 0.84 0.87 0.92 0.90 0.87 0.84 0.88 0.88 0.89 0.92 0.93 0.90 0.88 0.86 0.86 0.82 0.82 0.76 0.80 0.86 0.89 0.91
1.64 1.67 1.73 1.70 1.75 1.77 1.78 1.79 1.80 1.78 1.75 1.78 1.71 1.53 1.42 1.27 1.11 1.09 1.06 1.06 1.07 1.08 1.11 1.08 1.06 1.12 1.15 1.21 1.28 1.29 1.29 1.33 1.39 1.40 1.35 1.32 1.32 1.35 1.35 1.33 1.31 1.32 1.35 1.33 1.29 1.30 1.36 1.41 1.42 1.47 1.52 1.51 1.50 1.39 1.37 1.44 1.41 1.37 1.38 1.34 1.24 1.12 0.95 0.85 0.83 0.86 0.86 0.79 0.83 0.82 0.84 0.84 0.84 0.90 0.90 0.87 0.87 0.86 0.86 0.86 0.82 0.80 0.76 0.75 0.72
1.62 1.65 1.76 1.66 1.60 1.57 1.58 1.60 1.61 1.64 1.66 1.63 1.65 1.66 1.60 1.44 1.26 1.19 1.14 1.10 1.10 1.11 1.11 1.11 1.10 1.11 1.16 1.19 1.23 1.28 1.26 1.30 1.35 1.36 1.33 1.33 1.35 1.38 1.41 1.40 1.39 1.37 1.35 1.31 1.33 1.42 1.41 1.35 1.31 1.36 1.36 1.37 1.43 1.44 1.48 1.51 1.43 1.37 1.37 1.35 1.30 1.23 1.11 0.98 0.89 0.86 0.87 0.83 0.82 0.84 0.82 0.80 0.85 0.90 0.89 0.89 0.90 0.89 0.89 0.85 0.80 0.78 0.79 0.79 0.80
1.61 1.63 1.65 1.62 1.61 1.60 1.56 1.55 1.58 1.57 1.57 1.63 1.65 1.62 1.53 1.46 1.36 1.29 1.25 1.21 1.19 1.15 1.11 1.14 1.16 1.20 1.17 1.16 1.22 1.28 1.27 1.32 1.38 1.34 1.34 1.38 1.40 1.41 1.41 1.42 1.43 1.39 1.38 1.41 1.45 1.44 1.44 1.41 1.39 1.40 1.43 1.46 1.51 1.53 1.49 1.43 1.47 1.49 1.43 1.41 1.34 1.25 1.14 1.03 1.01 0.98 0.96 0.90 0.86 0.86 0.88 0.89 0.88 0.90 0.95 0.94 0.95 0.85 0.84 0.82 0.82 0.82 0.83 0.83 0.86
1.55 1.57 1.58 1.57 1.59 1.62 1.61 1.58 1.51 1.49 1.49 1.49 1.51 1.51 1.51 1.45 1.40 1.34 1.31 1.29 1.25 1.21 1.19 1.18 1.20 1.25 1.24 1.23 1.31 1.33 1.31 1.36 1.39 1.39 1.42 1.44 1.41 1.38 1.36 1.34 1.36 1.39 1.38 1.39 1.43 1.44 1.46 1.45 1.41 1.39 1.41 1.48 1.54 1.51 1.48 1.45 1.45 1.50 1.50 1.40 1.34 1.31 1.22 1.10 1.06 1.05 1.04 0.97 0.94 0.90 0.97 1.04 0.99 0.99 1.00 0.98 0.87 0.81 0.81 0.79 0.84 0.80 0.81 0.81 0.89
1.50 1.53 1.53 1.56 1.58 1.58 1.55 1.48 1.42 1.40 1.43 1.43 1.43 1.45 1.46 1.47 1.44 1.40 1.33 1.27 1.25 1.25 1.24 1.23 1.22 1.29 1.33 1.33 1.38 1.31 1.31 1.33 1.38 1.41 1.45 1.42 1.34 1.29 1.34 1.37 1.38 1.41 1.43 1.43 1.43 1.44 1.46 1.47 1.45 1.43 1.45 1.50 1.54 1.52 1.51 1.47 1.42 1.37 1.32 1.31 1.28 1.19 1.10 1.12 1.15 1.13 1.11 1.07 1.07 1.05 1.06 1.08 1.07 1.01 0.93 0.89 0.86 0.84 0.84 0.84 0.85 0.86 0.88 0.92 0.90
1.37 1.39 1.37 1.36 1.37 1.41 1.39 1.38 1.40 1.45 1.45 1.43 1.41 1.41 1.43 1.44 1.41 1.41 1.38 1.38 1.38 1.34 1.30 1.25 1.25 1.31 1.37 1.33 1.34 1.33 1.36 1.38 1.44 1.45 1.43 1.36 1.25 1.26 1.32 1.37 1.38 1.40 1.46 1.48 1.49 1.51 1.51 1.46 1.43 1.43 1.44 1.49 1.49 1.49 1.45 1.42 1.36 1.30 1.24 1.23 1.20 1.12 1.06 1.09 1.11 1.07 1.02 1.01 1.02 1.02 1.02 1.02 0.93 0.86 0.84 0.84 0.85 0.87 0.90 0.92 0.91 0.88 0.84 0.79 0.74
1.23 1.27 1.27 1.28 1.31 1.35 1.39 1.41 1.42 1.45 1.44 1.45 1.43 1.44 1.44 1.44 1.45 1.49 1.44 1.41 1.39 1.35 1.31 1.29 1.32 1.36 1.41 1.36 1.37 1.35 1.33 1.35 1.42 1.43 1.37 1.30 1.23 1.24 1.27 1.30 1.32 1.36 1.43 1.48 1.45 1.44 1.44 1.45 1.44 1.44 1.49 1.51 1.50 1.48 1.43 1.35 1.28 1.22 1.17 1.11 1.05 0.97 0.94 1.03 1.08 1.06 1.05 1.02 1.00 1.01 0.99 0.92 0.88 0.85 0.86 0.89 0.90 0.93 0.90 0.83 0.79 0.82 0.75 0.69 0.68
1.26 1.28 1.28 1.30 1.32 1.38 1.42 1.43 1.43 1.48 1.50 1.49 1.49 1.51 1.52 1.51 1.51 1.53 1.45 1.42 1.38 1.36 1.37 1.38 1.43 1.47 1.42 1.35 1.36 1.35 1.35 1.36 1.39 1.38 1.27 1.14 1.13 1.19 1.28 1.32 1.39 1.45 1.40 1.45 1.42 1.39 1.38 1.37 1.42 1.47 1.50 1.53 1.47 1.39 1.31 1.24 1.18 1.15 1.08 0.96 0.90 0.87 0.90 0.96 1.00 1.06 1.05 1.01 0.99 0.96 0.95 0.94 0.93 0.90 0.89 0.91 0.93 0.95 0.90 0.79 0.83 0.83 0.73 0.68 0.61
1.28 1.27 1.30 1.34 1.37 1.44 1.45 1.45 1.48 1.52 1.54 1.58 1.56 1.52 1.50 1.52 1.55 1.56 1.54 1.51 1.47 1.47 1.48 1.45 1.44 1.43 1.42 1.39 1.42 1.35 1.35 1.43 1.39 1.26 1.13 1.10 1.16 1.24 1.27 1.26 1.27 1.35 1.39 1.41 1.42 1.37 1.36 1.36 1.39 1.42 1.42 1.38 1.31 1.25 1.21 1.18 1.14 1.09 0.98 0.91 0.85 0.84 0.88 0.93 0.93 0.92 0.92 0.90 0.91 0.93 0.96 0.97 0.95 0.93 0.91 0.92 0.93 0.93 0.92 0.90 0.90 0.80 0.69 0.65 0.62
1.33 1.33 1.34 1.38 1.42 1.45 1.46 1.47 1.49 1.51 1.53 1.55 1.57 1.54 1.55 1.55 1.55 1.54 1.54 1.51 1.45 1.44 1.39 1.34 1.33 1.32 1.34 1.33 1.36 1.32 1.25 1.34 1.31 1.16 1.15 1.15 1.17 1.24 1.26 1.21 1.19 1.20 1.25 1.30 1.33 1.33 1.32 1.34 1.31 1.30 1.27 1.22 1.18 1.15 1.13 1.11 1.00 0.96 0.93 0.87 0.84 0.83 0.94 0.94 0.89 0.86 0.86 0.88 0.90 0.94 0.93 0.92 0.91 0.90 0.90 0.89 0.89 0.89 0.85 0.82 0.80 0.74 0.66 0.60 0.59
1.31 1.31 1.35 1.37 1.40 1.42 1.47 1.47 1.48 1.53 1.60 1.60 1.56 1.55 1.56 1.56 1.54 1.51 1.45 1.40 1.35 1.32 1.27 1.26 1.26 1.26 1.29 1.31 1.30 1.31 1.32 1.28 1.32 1.22 1.23 1.26 1.29 1.25 1.23 1.22 1.23 1.24 1.25 1.27 1.28 1.28 1.29 1.29 1.28 1.20 1.15 1.10 1.07 1.04 0.98 0.93 0.92 0.91 0.92 0.90 0.90 0.90 0.90 0.85 0.85 0.87 0.88 0.92 0.94 0.92 0.89 0.87 0.85 0.84 0.82 0.81 0.79 0.78 0.77 0.75 0.72 0.68 0.63 0.58 0.55
1.31 1.36 1.37 1.40 1.46 1.50 1.49 1.54 1.59 1.59 1.60 1.60 1.53 1.53 1.55 1.53 1.46 1.39 1.33 1.27 1.23 1.23 1.24 1.21 1.19 1.21 1.26 1.29 1.28 1.29 1.36 1.26 1.22 1.23 1.23 1.22 1.21 1.20 1.16 1.18 1.25 1.26 1.25 1.23 1.22 1.24 1.23 1.23 1.17 1.06 1.00 0.97 0.94 0.91 0.91 0.90 0.91 0.92 0.92 0.91 0.89 0.86 0.85 0.86 0.86 0.87 0.90 0.90 0.88 0.85 0.82 0.82 0.81 0.80 0.76 0.73 0.70 0.69 0.67 0.65 0.63 0.62 0.61 0.60 0.59
1.32 1.35 1.40 1.43 1.47 1.49 1.53 1.56 1.57 1.57 1.54 1.56 1.54 1.48 1.47 1.42 1.37 1.31 1.23 1.19 1.17 1.15 1.15 1.15 1.15 1.18 1.23 1.26 1.29 1.35 1.29 1.21 1.20 1.21 1.20 1.20 1.19 1.18 1.20 1.24 1.30 1.31 1.26 1.24 1.17 1.16 1.08 1.05 0.99 0.92 0.91 0.91 0.91 0.90 0.90 0.89 0.89 0.91 0.88 0.85 0.83 0.82 0.81 0.82 0.86 0.86 0.86 0.86 0.83 0.79 0.79 0.81 0.79 0.76 0.72 0.67 0.64 0.61 0.58 0.55 0.55 0.56 0.58 0.59 0.60
1.39 1.37 1.38 1.41 1.47 1.52 1.55 1.58 1.59 1.58 1.56 1.55 1.51 1.45 1.39 1.34 1.30 1.23 1.18 1.14 1.12 1.10 1.08 1.06 1.06 1.07 1.08 1.13 1.21 1.18 1.15 1.18 1.16 1.16 1.16 1.16 1.18 1.21 1.22 1.25 1.29 1.31 1.26 1.19 1.13 1.08 1.03 1.00 0.95 0.92 0.92 0.92 0.91 0.89 0.88 0.87 0.88 0.86 0.82 0.81 0.79 0.78 0.80 0.83 0.84 0.84 0.84 0.83 0.81 0.79 0.77 0.77 0.74 0.71 0.67 0.64 0.60 0.55 0.53 0.56 0.56 0.54 0.51 0.52 0.56
1.42 1.38 1.40 1.45 1.51 1.56 1.62 1.65 1.65 1.59 1.54 1.49 1.42 1.37 1.29 1.27 1.22 1.19 1.12 1.09 1.07 1.01 1.00 1.04 1.03 1.02 0.99 1.01 1.03 1.04 1.08 1.11 1.13 1.13 1.14 1.16 1.21 1.22 1.23 1.23 1.23 1.21 1.12 1.10 1.04 0.99 0.95 0.94 0.94 0.95 0.93 0.91 0.90 0.89 0.87 0.86 0.84 0.80 0.78 0.76 0.76 0.79 0.83 0.83 0.82 0.82 0.80 0.78 0.76 0.75 0.74 0.74 0.72 0.69 0.67 0.63 0.58 0.55 0.55 0.55 0.53 0.50 0.51 0.56 0.60
1.41 1.41 1.46 1.48 1.49 1.54 1.57 1.61 1.59 1.51 1.45 1.41 1.38 1.36 1.31 1.27 1.22 1.16 1.11 1.07 1.02 0.96 0.99 1.03 1.06 1.04 1.00 1.01 1.02 1.04 1.07 1.09 1.13 1.18 1.20 1.21 1.19 1.17 1.17 1.20 1.17 1.10 1.05 1.00 0.94 0.95 0.95 0.97 0.96 0.95 0.92 0.91 0.90 0.90 0.89 0.87 0.82 0.77 0.75 0.75 0.78 0.83 0.82 0.80 0.81 0.80 0.78 0.76 0.74 0.71 0.71 0.71 0.68 0.66 0.60 0.56 0.51 0.47 0.48 0.48 0.47 0.46 0.50 0.54 0.56
1.43 1.44 1.47 1.51 1.52 1.52 1.49 1.46 1.44 1.42 1.40 1.39 1.39 1.38 1.38 1.32 1.26 1.21 1.18 1.17 1.18 1.14 1.09 1.06 1.03 1.00 0.98 1.02 1.06 1.07 1.07 1.08 1.11 1.16 1.19 1.14 1.11 1.12 1.15 1.13 1.06 0.99 0.96 0.95 0.95 0.97 0.97 0.97 0.96 0.95 0.94 0.92 0.90 0.86 0.83 0.79 0.75 0.77 0.79 0.81 0.81 0.80 0.80 0.80 0.78 0.74 0.72 0.71 0.72 0.72 0.70 0.69 0.66 0.58 0.51 0.44 0.42 0.44 0.46 0.46 0.46 0.46 0.51 0.55 0.58
1.41 1.44 1.48 1.51 1.51 1.49 1.44 1.40 1.38 1.36 1.37 1.37 1.36 1.35 1.37 1.35 1.28 1.23 1.19 1.17 1.14 1.14 1.13 1.07 1.02 1.00 1.00 1.01 1.05 1.08 1.10 1.13 1.15 1.13 1.16 1.19 1.14 1.11 1.08 1.00 0.96 0.93 0.96 0.99 1.01 1.02 0.99 0.97 0.96 0.94 0.92 0.89 0.87 0.86 0.82 0.81 0.79 0.77 0.77 0.78 0.78 0.79 0.77 0.76 0.75 0.76 0.78 0.78 0.74 0.71 0.68 0.64 0.55 0.47 0.41 0.39 0.39 0.40 0.43 0.44 0.46 0.49 0.53 0.59 0.63
1.47 1.48 1.48 1.48 1.46 1.46 1.41 1.38 1.35 1.32 1.32 1.35 1.39 1.39 1.39 1.36 1.33 1.31 1.36 1.33 1.27 1.20 1.17 1.14 1.08 1.06 1.07 1.09 0.99 0.96 1.03 1.07 1.10 1.15 1.14 1.11 1.06 1.00 1.00 0.99 0.97 0.97 0.95 0.99 1.00 1.02 1.01 0.96 0.92 0.91 0.90 0.87 0.82 0.76 0.75 0.76 0.78 0.79 0.79 0.79 0.75 0.74 0.74 0.72 0.68 0.68 0.69 0.68 0.64 0.60 0.57 0.53 0.46 0.42 0.40 0.37 0.37 0.37 0.41 0.43 0.49 0.54 0.58 0.67 0.70
1.45 1.45 1.46 1.44 1.40 1.38 1.35 1.31 1.30 1.30 1.30 1.30 1.29 1.29 1.31 1.32 1.32 1.28 1.23 1.22 1.21 1.22 1.21 1.20 1.18 1.12 0.99 1.02 1.09 1.04 1.02 1.11 1.13 1.06 1.02 1.00 0.99 0.97 0.97 0.96 0.95 0.96 0.96 1.00 1.00 0.96 0.94 0.91 0.87 0.84 0.83 0.79 0.73 0.71 0.71 0.72 0.72 0.72 0.74 0.74 0.73 0.71 0.68 0.65 0.63 0.62 0.61 0.57 0.55 0.54 0.51 0.46 0.42 0.40 0.38 0.35 0.34 0.35 0.41 0.45 0.50 0.56 0.60 0.66 0.71
1.40 1.40 1.38 1.34 1.34 1.32 1.29 1.26 1.28 1.28 1.28 1.27 1.25 1.22 1.19 1.20 1.19 1.15 1.12 1.12 1.11 1.12 1.13 1.10 1.08 1.02 1.04 1.11 1.06 1.01 1.02 1.02 1.00 0.99 0.99 0.98 0.99 0.99 0.96 0.93 0.94 0.97 1.00 0.98 0.94 0.89 0.89 0.87 0.85 0.83 0.81 0.76 0.73 0.72 0.73 0.71 0.71 0.69 0.68 0.67 0.66 0.65 0.64 0.62 0.60 0.58 0.53 0.50 0.51 0.50 0.46 0.42 0.39 0.39 0.36 0.34 0.32 0.34 0.39 0.46 0.52 0.58 0.63 0.70 0.74
1.28 1.26 1.25 1.26 1.27 1.24 1.24 1.23 1.23 1.22 1.22 1.23 1.19 1.15 1.12 1.10 1.05 1.05 1.04 1.05 1.06 1.05 1.04 1.02 1.01 0.99 0.97 1.03 1.00 0.99 0.99 0.99 1.00 1.02 1.04 1.03 1.00 0.96 0.94 0.95 0.98 1.00 1.01 0.99 0.91 0.88 0.87 0.84 0.81 0.78 0.76 0.74 0.74 0.75 0.73 0.69 0.68 0.66 0.64 0.62 0.61 0.62 0.59 0.55 0.56 0.50 0.46 0.47 0.47 0.41 0.40 0.40 0.39 0.36 0.34 0.33 0.32 0.33 0.36 0.43 0.49 0.55 0.63 0.71 0.75
1.22 1.20 1.22 1.21 1.19 1.17 1.14 1.11 1.12 1.14 1.14 1.13 1.09 1.09 1.06 1.02 0.97 0.94 0.99 1.02 1.03 1.01 0.99 0.97 0.93 0.92 0.93 0.97 1.00 1.01 0.99 1.01 1.04 1.05 1.03 0.98 0.96 0.96 0.97 0.99 1.00 1.01 0.98 0.93 0.88 0.86 0.82 0.81 0.78 0.78 0.77 0.76 0.76 0.75 0.74 0.71 0.67 0.64 0.62 0.61 0.59 0.58 0.55 0.53 0.49 0.47 0.47 0.45 0.39 0.40 0.40 0.38 0.36 0.33 0.33 0.32 0.32 0.32 0.35 0.39 0.46 0.54 0.62 0.65 0.70
1.19 1.18 1.17 1.16 1.12 1.09 1.07 1.05 1.05 1.07 1.08 1.06 1.05 1.04 1.04 1.03 1.01 1.01 0.94 0.93 0.95 0.95 0.97 0.96 0.93 0.92 0.95 1.00 1.03 1.04 1.05 1.04 1.03 1.01 0.98 0.97 0.99 1.02 1.02 1.00 0.99 1.01 1.00 0.96 0.91 0.86 0.82 0.80 0.79 0.77 0.78 0.78 0.76 0.74 0.72 0.71 0.68 0.65 0.63 0.61 0.59 0.55 0.51 0.49 0.47 0.47 0.43 0.39 0.37 0.37 0.36 0.33 0.32 0.32 0.31 0.31 0.33 0.33 0.35 0.36 0.42 0.47 0.54 0.61 0.64
1.16 1.13 1.12 1.11 1.10 1.06 1.05 1.06 1.03 1.03 1.07 1.06 1.06 1.06 1.06 1.07 1.06 1.04 0.99 0.93 0.91 0.90 0.87 0.88 0.96 1.00 1.00 1.01 1.02 1.03 1.02 1.01 1.00 0.99 0.99 1.01 1.04 1.05 1.03 0.99 0.98 1.00 0.97 0.92 0.88 0.84 0.82 0.80 0.79 0.79 0.80 0.78 0.78 0.76 0.72 0.69 0.67 0.65 0.62 0.58 0.54 0.49 0.45 0.44 0.42 0.40 0.36 0.35 0.35 0.35 0.32 0.30 0.33 0.31 0.30 0.30 0.31 0.32 0.34 0.35 0.37 0.44 0.49 0.55 0.60
1.09 1.06 1.05 1.06 1.07 1.05 1.05 1.04 1.05 1.07 1.06 1.03 1.02 1.02 1.04 1.05 1.00 0.96 0.93 0.91 0.95 0.98 0.93 0.93 0.93 0.92 0.91 0.93 0.96 0.96 0.96 0.96 0.96 0.98 1.01 1.03 1.03 1.02 0.94 0.98 1.02 1.00 0.94 0.92 0.88 0.86 0.85 0.83 0.82 0.82 0.82 0.82 0.80 0.76 0.73 0.68 0.66 0.64 0.62 0.56 0.48 0.42 0.40 0.42 0.41 0.37 0.33 0.32 0.33 0.32 0.31 0.33 0.32 0.31 0.31 0.31 0.31 0.33 0.33 0.32 0.35 0.41 0.46 0.51 0.57
1.04 1.04 1.08 1.12 1.11 1.11 1.13 1.14 1.10 1.04 1.00 0.99 0.99 0.99 1.01 1.00 0.99 0.97 0.97 1.01 1.02 0.94 0.87 0.84 0.84 0.85 0.91 0.93 0.94 0.93 0.94 0.95 0.96 0.98 0.99 0.99 0.99 1.00 1.01 1.01 0.97 0.93 0.90 0.88 0.87 0.86 0.84 0.84 0.85 0.84 0.83 0.81 0.78 0.74 0.72 0.68 0.66 0.65 0.61 0.56 0.47 0.36 0.38 0.39 0.33 0.27 0.29 0.32 0.33 0.34 0.32 0.32 0.32 0.32 0.31 0.30 0.32 0.33 0.32 0.31 0.35 0.39 0.44 0.48 0.53
1.10 1.09 1.11 1.09 1.07 1.06 1.05 1.05 0.99 0.94 0.94 0.95 1.02 1.07 1.04 1.01 1.01 1.03 1.02 0.98 0.92 0.89 0.90 0.91 0.90 0.90 0.88 0.90 0.94 0.92 0.91 0.91 0.92 0.92 0.94 0.97 0.98 0.96 0.96 0.96 0.94 0.92 0.90 0.89 0.87 0.86 0.84 0.83 0.83 0.82 0.81 0.78 0.75 0.74 0.71 0.68 0.65 0.60 0.56 0.51 0.43 0.37 0.30 0.24 0.30 0.34 0.35 0.35 0.34 0.32 0.32 0.32 0.32 0.32 0.32 0.32 0.32 0.31 0.30 0.32 0.33 0.35 0.40 0.45 0.51
0.99 0.96 0.95 0.96 1.00 1.02 1.02 1.02 1.01 1.02 1.03 1.07 1.08 1.08 1.03 1.01 1.00 0.99 0.99 0.97 0.94 0.95 0.98 0.99 0.96 0.98 0.95 0.92 0.91 0.90 0.87 0.85 0.85 0.84 0.86 0.88 0.90 0.93 0.94 0.93 0.92 0.91 0.88 0.86 0.84 0.83 0.81 0.80 0.80 0.80 0.78 0.76 0.73 0.73 0.69 0.65 0.62 0.58 0.55 0.46 0.36 0.36 0.35 0.35 0.34 0.33 0.32 0.33 0.31 0.32 0.32 0.32 0.32 0.32 0.33 0.33 0.31 0.30 0.32 0.34 0.33 0.33 0.36 0.41 0.49
0.92 0.94 0.96 0.98 1.01 1.05 1.07 1.06 1.06 1.06 1.07 1.08 1.05 1.01 0.99 0.96 0.97 0.99 1.02 1.03 1.01 1.00 1.02 1.02 1.01 1.01 0.99 0.95 0.90 0.89 0.86 0.86 0.86 0.88 0.88 0.88 0.87 0.88 0.90 0.88 0.87 0.85 0.84 0.82 0.81 0.79 0.79 0.78 0.78 0.77 0.75 0.75 0.73 0.70 0.67 0.63 0.59 0.55 0.50 0.40 0.34 0.33 0.33 0.30 0.30 0.31 0.31 0.31 0.31 0.32 0.31 0.31 0.32 0.31 0.32 0.33 0.31 0.32 0.34 0.33 0.33 0.33 0.35 0.41 0.51
0.98 1.00 1.00 0.99 0.98 0.99 1.01 1.03 1.05 1.06 1.05 1.05 1.04 1.03 1.01 1.02 1.03 1.04 1.05 1.06 1.08 1.08 1.06 1.03 1.02 1.02 0.99 0.94 0.92 0.90 0.89 0.88 0.89 0.89 0.87 0.86 0.86 0.86 0.86 0.86 0.85 0.83 0.83 0.80 0.78 0.77 0.77 0.77 0.75 0.75 0.72 0.70 0.68 0.64 0.62 0.58 0.54 0.48 0.39 0.34 0.30 0.29 0.29 0.31 0.30 0.30 0.30 0.30 0.30 0.30 0.30 0.31 0.30 0.30 0.31 0.32 0.33 0.34 0.34 0.35 0.35 0.33 0.34 0.42 0.50
0.95 0.95 0.92 0.93 0.94 0.96 0.98 1.00 1.03 1.07 1.09 1.07 1.06 1.09 1.11 1.10 1.10 1.09 1.09 1.09 1.08 1.06 1.03 1.01 1.02 0.99 0.95 0.92 0.89 0.90 0.89 0.87 0.89 0.88 0.87 0.86 0.85 0.85 0.85 0.85 0.84 0.85 0.83 0.80 0.78 0.77 0.77 0.77 0.76 0.74 0.69 0.65 0.60 0.58 0.56 0.53 0.49 0.40 0.32 0.29 0.30 0.29 0.28 0.30 0.31 0.30 0.29 0.30 0.30 0.29 0.28 0.29 0.29 0.30 0.32 0.32 0.33 0.32 0.33 0.34 0.34 0.34 0.34 0.40 0.45
0.99 1.00 0.97 0.96 0.97 0.96 0.94 0.97 1.02 1.02 0.98 0.93 0.92 0.96 1.03 1.08 1.09 1.09 1.07 1.06 1.05 1.03 1.02 0.98 0.95 0.93 0.90 0.90 0.89 0.87 0.85 0.83 0.84 0.83 0.82 0.81 0.81 0.81 0.82 0.82 0.83 0.83 0.83 0.82 0.82 0.80 0.79 0.77 0.75 0.71 0.65 0.61 0.59 0.56 0.52 0.48 0.41 0.32 0.28 0.27 0.28 0.28 0.27 0.28 0.29 0.30 0.31 0.29 0.28 0.27 0.29 0.30 0.29 0.29 0.31 0.31 0.31 0.32 0.33 0.33 0.34 0.33 0.34 0.39 0.42
1.01 1.00 0.98 0.94 0.94 0.96 0.98 0.98 0.94 0.90 0.85 0.87 0.92 0.98 1.03 1.07 1.07 1.06 1.06 1.04 1.02 1.00 0.97 0.96 0.97 0.92 0.88 0.87 0.86 0.83 0.79 0.77 0.77 0.78 0.79 0.78 0.79 0.79 0.78 0.79 0.80 0.81 0.81 0.79 0.77 0.77 0.75 0.73 0.70 0.66 0.61 0.59 0.57 0.54 0.47 0.39 0.32 0.27 0.26 0.26 0.26 0.27 0.26 0.28 0.28 0.30 0.29 0.27 0.26 0.27 0.28 0.28 0.27 0.29 0.29 0.28 0.30 0.31 0.31 0.32 0.33 0.32 0.32 0.36 0.40
0.98 0.97 0.97 0.99 1.02 0.98 0.91 0.87 0.84 0.85 0.90 0.98 1.02 1.05 1.05 1.03 1.03 1.05 1.04 1.00 0.98 0.95 0.92 0.89 0.88 0.85 0.81 0.81 0.79 0.77 0.75 0.74 0.74 0.74 0.75 0.76 0.78 0.78 0.76 0.77 0.77 0.77 0.75 0.72 0.73 0.73 0.70 0.68 0.64 0.61 0.58 0.56 0.55 0.49 0.41 0.33 0.27 0.24 0.23 0.24 0.26 0.27 0.28 0.29 0.29 0.29 0.28 0.27 0.27 0.27 0.27 0.26 0.26 0.28 0.27 0.28 0.30 0.30 0.29 0.31 0.33 0.32 0.33 0.32 0.34
1.08 1.09 1.06 1.01 0.98 0.94 0.90 0.90 0.96 1.02 1.05 1.04 1.02 0.98 0.96 0.97 0.99 0.99 0.96 0.94 0.93 0.90 0.87 0.84 0.83 0.80 0.79 0.79 0.80 0.78 0.76 0.74 0.73 0.75 0.75 0.76 0.77 0.79 0.78 0.76 0.74 0.73 0.70 0.68 0.69 0.69 0.66 0.63 0.61 0.58 0.56 0.54 0.52 0.45 0.36 0.28 0.23 0.21 0.21 0.22 0.23 0.25 0.27 0.27 0.28 0.27 0.29 0.29 0.27 0.27 0.27 0.26 0.27 0.28 0.27 0.27 0.30 0.30 0.30 0.32 0.32 0.32 0.32 0.31 0.30
1.04 1.00 0.99 1.00 1.00 0.98 1.02 1.12 1.10 1.06 1.01 0.97 0.94 0.94 0.95 0.94 0.95 0.94 0.91 0.89 0.87 0.85 0.83 0.81 0.78 0.77 0.76 0.74 0.73 0.75 0.76 0.74 0.73 0.73 0.76 0.78 0.78 0.78 0.75 0.72 0.69 0.67 0.66 0.66 0.67 0.65 0.64 0.61 0.60 0.58 0.55 0.54 0.50 0.43 0.32 0.26 0.23 0.22 0.22 0.22 0.23 0.24 0.26 0.29 0.30 0.31 0.31 0.30 0.29 0.28 0.27 0.28 0.28 0.28 0.28 0.29 0.30 0.30 0.30 0.30 0.29 0.31 0.31 0.30 0.29
0.97 0.98 1.01 1.00 1.04 1.06 1.07 1.04 0.97 0.90 0.92 0.91 0.90 0.91 0.91 0.92 0.90 0.86 0.82 0.80 0.74 0.73 0.72 0.72 0.72 0.72 0.71 0.70 0.71 0.71 0.71 0.71 0.70 0.70 0.72 0.74 0.76 0.75 0.71 0.67 0.63 0.60 0.61 0.61 0.62 0.62 0.62 0.61 0.59 0.57 0.55 0.52 0.46 0.39 0.31 0.26 0.24 0.24 0.24 0.25 0.25 0.27 0.26 0.24 0.26 0.30 0.33 0.31 0.28 0.28 0.30 0.30 0.30 0.29 0.29 0.30 0.31 0.29 0.28 0.27 0.29 0.30 0.31 0.30 0.28
1.08 1.09 1.05 1.03 0.99 0.99 0.96 0.92 0.94 0.90 0.89 0.87 0.85 0.81 0.81 0.80 0.78 0.76 0.73 0.71 0.69 0.67 0.65 0.63 0.64 0.64 0.63 0.63 0.63 0.64 0.65 0.65 0.66 0.68 0.71 0.74 0.74 0.70 0.67 0.64 0.59 0.57 0.57 0.57 0.57 0.57 0.58 0.58 0.57 0.55 0.53 0.50 0.45 0.37 0.31 0.27 0.26 0.26 0.26 0.26 0.25 0.21 0.19 0.19 0.22 0.26 0.24 0.23 0.29 0.32 0.32 0.31 0.30 0.29 0.30 0.31 0.31 0.31 0.27 0.28 0.29 0.29 0.30 0.30 0.27
0.99 0.97 0.97 0.95 0.92 0.91 0.91 0.89 0.88 0.86 0.86 0.83 0.79 0.76 0.75 0.71 0.68 0.67 0.66 0.64 0.64 0.64 0.64 0.63 0.62 0.62 0.63 0.64 0.66 0.66 0.64 0.64 0.65 0.68 0.70 0.73 0.71 0.68 0.64 0.61 0.56 0.56 0.56 0.56 0.56 0.56 0.55 0.55 0.54 0.52 0.51 0.47 0.42 0.35 0.30 0.29 0.28 0.28 0.29 0.27 0.24 0.21 0.19 0.17 0.19 0.22 0.24 0.25 0.29 0.30 0.31 0.32 0.31 0.30 0.30 0.31 0.30 0.31 0.27 0.26 0.27 0.29 0.28 0.29 0.26
0.91 0.89 0.87 0.86 0.86 0.86 0.83 0.80 0.78 0.76 0.76 0.73 0.71 0.69 0.69 0.68 0.67 0.67 0.65 0.63 0.62 0.61 0.60 0.60 0.61 0.62 0.63 0.64 0.65 0.65 0.65 0.66 0.67 0.68 0.69 0.70 0.69 0.67 0.63 0.60 0.57 0.56 0.56 0.56 0.56 0.56 0.54 0.52 0.51 0.50 0.48 0.44 0.40 0.34 0.31 0.29 0.31 0.30 0.27 0.25 0.23 0.21 0.19 0.18 0.21 0.23 0.23 0.24 0.23 0.29 0.33 0.32 0.31 0.30 0.30 0.29 0.27 0.29 0.26 0.27 0.26 0.28 0.27 0.27 0.27
Wind_Speed
21 20 20 19 20 20 21 20 20 20 20 21 21 21 21 20 20 20 20 20 20 20 20 20 21 21 20 19 19 19 20 20 20 20 21 21 21 21 21 20 20 19 19 19 19 19 19 19 19 19 18 18 18 19 19 19 20 20 20 21 21 21 22 23 24 25 24 24 25 26 26 27 27 28 28 29 29 30 31 31 32 32 33 33 33
21 20 19 19 20 20 21 21 21 21 21 21 21 21 22 22 21 21 22 22 22 22 21 21 22 23 22 21 21 22 22 22 22 22 22 22 22 22 21 21 21 20 20 20 20 20 20 20 19 19 19 19 19 19 20 20 21 21 21 21 22 23 23 24 25 26 26 26 26 27 27 28 29 29 29 30 31 31 32 32 32 32 33 33 34
20 20 20 20 20 21 21 21 21 21 21 21 20 21 22 22 22 23 23 23 22 22 22 22 23 24 24 24 24 24 24 24 25 24 24 24 23 22 22 22 22 21 21 21 21 20 20 20 20 19 19 19 19 20 21 21 21 22 22 22 23 24 25 25 26 27 28 28 28 28 29 29 30 31 31 31 32 33 33 32 32 33 33 34 34
20 21 22 22 21 22 22 22 22 22 21 20 19 20 21 21 22 23 24 24 23 23 23 24 25 26 27 26 26 26 25 25 26 26 25 25 24 24 23 23 23 22 22 22 21 21 21 21 21 20 20 20 20 20 22 22 22 22 23 23 24 25 26 26 27 28 28 29 29 29 30 31 31 31 31 32 32 33 33 33 33 34 34 35 35
21 21 22 23 23 22 22 22 22 22 21 20 20 20 19 19 21 23 25 26 26 26 27 28 29 30 29 28 27 26 25 25 25 26 26 25 25 25 24 23 23 23 23 22 22 22 21 21 22 22 21 21 21 21 22 23 23 23 24 24 25 26 26 27 28 28 29 30 31 31 31 32 32 31 31 32 32 32 33 33 34 35 35 35 36
21 21 22 23 23 22 22 22 23 24 23 23 23 22 20 19 20 23 25 26 26 27 28 29 29 29 28 27 27 25 24 24 24 25 25 25 26 25 25 24 24 24 24 23 23 23 22 22 23 23 23 22 22 23 23 24 24 24 24 25 25 26 27 28 28 29 30 31 32 31 31 32 32 32 31 32 32 33 34 34 34 35 35 35 35
21 22 22 23 23 23 22 23 24 25 26 27 27 26 24 22 23 24 24 24 24 25 27 27 27 25 23 22 23 22 22 23 24 24 24 25 26 26 26 25 25 25 25 24 24 23 24 23 24 24 24 24 24 24 25 25 25 25 25 25 26 27 28 29 29 30 30 31 32 32 32 32 32 32 32 32 33 33 34 34 34 35 35 34 34
22 22 23 22 22 22 23 23 23 23 25 27 28 27 26 26 26 25 24 24 24 25 26 27 25 23 21 21 21 22 24 24 25 25 25 25 26 27 27 26 26 25 25 25 24 24 24 24 24 24 24 24 25 26 26 26 26 26 27 28 28 29 30 31 31 30 31 32 32 32 32 32 32 32 32 32 33 33 33 34 35 35 35 34 33
22 22 22 21 21 21 21 21 21 21 22 23 25 26 28 27 26 26 26 26 25 26 26 26 24 23 23 22 22 24 26 26 25 25 26 26 26 27 27 27 26 26 26 25 25 25 25 25 25 25 26 26 27 28 28 28 28 29 29 30 30 31 32 32 31 31 32 32 32 32 32 31 31 32 32 33 33 33 34 34 35 35 35 35 34
21 20 20 20 21 21 21 22 24 23 23 23 25 27 28 27 26 27 27 26 25 25 25 24 23 24 24 23 23 24 26 26 25 25 26 26 27 26 26 27 27 26 26 26 26 26 26 26 26 26 27 27 27 29 29 30 31 32 31 31 31 32 33 33 32 32 33 33 33 33 32 32 32 33 33 34 33 34 34 34 35 35 35 35 34
20 19 19 19 20 21 22 24 25 25 24 24 25 26 27 27 27 27 26 25 25 25 24 24 24 24 24 24 24 25 26 26 25 25 26 27 27 26 26 26 27 27 27 27 27 27 27 27 27 27 26 27 28 30 31 32 33 33 32 32 33 33 33 33 33 33 34 34 33 33 33 33 33 33 34 34 34 34 34 34 35 34 34 34 33
20 20 19 19 20 21 22 23 24 25 25 24 25 25 26 27 27 27 27 26 26 26 25 25 24 24 25 26 26 27 26 26 26 26 26 26 26 26 26 26 27 27 27 27 27 27 27 28 28 28 28 29 30 31 31 31 32 31 31 32 33 34 34 33 34 34 34 34 34 34 34 34 34 34 34 34 34 34 34 34 34 34 33 32 32
19 19 19 20 21 21 22 22 23 24 24 25 25 25 25 26 26 27 27 27 27 26 26 25 24 25 25 26 27 27 26 25 25 25 25 24 24 24 25 25 26 26 26 26 27 27 28 28 29 29 30 30 30 30 30 30 30 29 30 32 34 34 34 34 34 35 34 34 34 34 34 34 34 34 33 33 34 34 35 34 34 33 32 32 32
18 18 19 20 21 22 22 23 23 24 24 25 24 24 24 25 26 26 27 27 27 27 26 25 25 26 26 27 27 27 25 25 24 24 24 23 23 23 23 24 25 25 26 26 26 26 27 28 29 30 29 29 29 29 29 29 29 29 32 34 34 34 34 34 34 34 33 33 33 33 33 33 33 33 33 33 34 35 35 35 34 33 32 32 32
19 20 21 22 22 22 22 23 23 23 24 24 24 24 25 25 25 26 27 27 27 27 27 26 26 26 26 26 27 26 25 24 24 24 23 23 23 23 23 23 24 24 25 25 26 26 28 28 29 29 29 29 29 29 29 29 31 32 34 35 35 35 34 34 33 33 33 33 33 34 33 33 33 34 33 34 34 35 35 34 33 32 32 32 31
21 22 23 23 23 23 23 23 23 23 23 24 24 24 25 25 25 25 25 26 27 27 27 27 27 26 26 25 25 25 23 22 23 23 22 22 22 22 22 23 23 24 24 25 26 27 28 29 29 29 30 30 30 30 31 32 33 34 34 35 35 35 34 34 33 34 34 35 35 35 34 34 34 34 34 33 33 33 33 32 31 31 31 30 30
23 24 24 24 24 23 23 23 23 23 23 24 24 24 24 24 24 24 25 26 27 28 28 27 26 25 25 24 24 23 22 21 21 21 20 20 21 22 23 23 22 22 23 24 25 27 28 29 30 30 31 31 31 31 33 34 34 35 35 35 34 34 34 34 34 34 34 34 35 35 34 34 34 33 33 32 32 31 31 31 30 30 30 30 30
23 24 25 24 23 23 23 23 23 23 23 24 24 24 24 24 24 24 25 26 27 28 27 26 24 23 23 23 22 22 21 20 20 20 20 20 21 22 22 22 22 23 25 26 27 29 30 31 31 32 31 31 31 32 34 34 34 35 35 34 34 35 35 34 34 34 33 34 34 33 32 32 32 32 31 31 30 30 31 31 30 30 30 31 31
23 24 24 23 23 22 22 23 23 23 24 24 24 24 24 25 25 25 26 28 28 27 25 24 22 22 22 22 22 21 20 20 20 21 21 22 22 22 21 21 23 26 27 28 29 30 31 31 31 31 31 31 32 33 34 34 34 34 34 34 34 34 34 34 34 34 34 34 33 31 31 31 30 30 30 30 30 30 30 31 30 30 30 31 32
23 22 22 22 22 22 22 22 23 24 24 24 24 24 25 26 26 27 28 28 27 25 24 23 22 22 22 21 21 20 20 19 20 21 21 21 21 21 21 22 24 26 27 28 29 30 30 30 29 29 30 31 31 32 33 33 33 33 33 33 33 34 34 34 34 34 34 33 32 30 30 30 29 29 29 30 30 30 30 30 29 30 31 32 32
22 22 21 21 21 22 23 24 25 25 25 25 24 25 26 27 27 28 27 25 23 23 23 22 22 21 20 19 19 18 18 18 19 20 20 20 21 22 23 25 26 27 28 29 29 29 28 28 27 28 29 30 31 31 32 32 32 32 32 32 33 33 33 33 33 33 32 31 30 29 29 29 29 29 29 30 30 30 29 29 29 30 30 31 31
22 21 21 21 22 23 25 26 25 25 25 26 26 26 27 27 26 25 24 23 22 22 22 21 21 20 19 19 18 18 18 19 19 20 21 22 23 24 25 27 28 28 29 28 28 27 26 27 27 28 29 29 30 30 31 31 31 31 31 32 32 33 33 32 32 31 30 29 28 28 28 28 28 28 29 29 29 28 28 28 29 29 30 30 31
22 22 22 23 24 24 25 26 26 26 26 26 27 27 27 26 24 23 23 22 21 20 20 19 19 19 19 19 19 19 19 20 21 21 21 22 23 24 26 27 27 27 26 26 25 25 26 27 28 28 28 29 30 30 30 30 30 30 31 31 32 32 32 31 30 29 28 28 27 27 27 27 28 28 28 28 28 28 28 29 29 29 29 30 30
23 23 24 24 24 25 26 26 26 26 26 27 27 26 24 23 23 22 21 20 19 18 18 18 18 18 18 19 19 19 20 21 22 21 21 22 23 24 26 26 25 25 25 25 25 26 27 28 28 28 29 29 29 30 30 30 30 30 30 31 31 31 30 29 28 28 27 27 26 26 27 27 27 27 27 28 28 29 28 28 27 28 28 28 29
23 24 24 25 25 26 26 27 27 27 26 25 24 23 22 21 21 20 19 18 17 17 17 18 18 18 19 20 20 21 21 21 21 21 22 22 24 24 24 24 24 24 25 26 27 27 27 27 28 28 28 29 29 29 30 30 30 29 29 30 29 29 28 27 27 27 26 26 26 26 26 26 26 27 28 28 28 27 26 26 26 27 27 27 28
23 23 24 24 25 25 25 26 26 25 24 22 21 21 20 20 19 18 17 17 18 18 18 18 19 19 20 21 21 21 21 21 21 22 22 23 23 23 23 23 23 24 25 26 27 27 27 27 27 27 28 28 29 29 29 28 28 28 28 28 27 27 26 26 26 25 25 25 25 24 25 25 26 27 27 27 26 25 25 25 25 25 25 25 26
23 23 24 24 24 24 24 24 23 22 21 20 20 20 19 19 19 18 18 18 19 19 19 19 19 20 21 21 21 22 22 22 22 22 22 22 22 22 22 23 24 25 26 26 27 27 27 26 27 27 28 28 28 27 27 27 27 27 26 26 25 25 25 25 25 24 24 24 24 24 25 25 25 25 25 25 24 24 23 24 24 24 24 24 25
24 24 24 24 24 23 22 22 21 20 20 20 19 19 20 19 19 18 18 19 19 19 20 20 20 21 21 21 21 22 22 22 22 22 22 22 23 22 22 23 25 26 26 26 26 26 25 26 26 26 26 26 26 26 26 26 25 25 24 24 24 24 24 24 23 23 23 23 23 24 24 24 24 24 23 23 23 23 23 23 23 23 23 23 24
24 24 23 23 22 22 21 21 21 20 20 20 20 20 20 19 19 19 19 19 19 20 20 20 20 20 21 21 21 21 22 22 22 22 22 23 23 23 23 24 25 25 25 25 25 24 25 25 26 26 26 25 25 25 25 24 23 23 22 22 23 23 23 23 22 22 22 22 23 23 22 22 22 22 22 22 22 22 22 22 22 22 22 23 23
23 22 22 21 21 21 21 21 21 21 21 21 21 21 20 20 20 20 20 21 21 21 20 20 20 20 21 21 21 21 22 23 23 22 22 22 22 23 24 24 25 25 24 24 24 25 25 26 26 26 25 25 25 24 23 22 22 21 22 22 22 22 22 21 21 21 21 22 21 21 21 21 21 21 21 21 21 21 21 21 21 21 21 22 22
22 21 20 20 20 20 20 20 20 20 21 21 21 21 21 20 20 21 21 21 21 21 21 21 21 21 21 21 21 22 23 22 22 22 22 22 23 24 24 24 24 24 24 24 25 26 26 26 26 25 24 24 23 22 21 21 21 21 22 22 22 21 20 20 20 20 20 20 19 19 20 20 20 21 21 21 20 20 20 20 20 20 21 21 21
20 19 19 19 20 20 20 19 19 20 20 20 21 21 21 20 20 20 20 21 21 20 20 21 21 22 22 22 22 23 23 23 23 23 23 23 24 24 24 24 23 24 24 25 26 26 26 26 25 24 24 23 22 21 21 21 21 21 21 21 20 20 19 19 19 19 19 19 18 19 19 19 20 20 20 20 19 19 19 19 19 19 20 21 21
19 19 19 19 20 20 19 19 19 19 19 20 20 20 20 21 20 20 20 21 21 21 21 21 22 22 23 23 23 23 23 23 23 23 24 24 24 23 23 23 24 24 25 26 26 25 25 25 24 23 23 22 22 22 22 21 21 20 20 20 20 19 19 19 19 19 18 18 18 18 18 19 19 19 19 19 18 18 19 19 19 19 20 20 20
18 19 19 19 19 20 19 19 19 19 19 19 19 20 20 21 21 21 21 21 22 22 22 23 23 22 23 23 23 23 23 24 24 24 24 24 23 23 23 24 24 25 25 25 25 24 25 24 23 23 23 22 23 23 22 21 20 20 20 19 19 19 19 18 18 18 18 18 18 18 18 18 18 18 18 18 18 18 18 18 18 19 19 19 20
18 18 18 19 19 19 19 18 18 18 18 19 20 21 22 22 23 22 22 22 22 22 22 22 22 22 22 23 23 23 23 24 24 24 24 23 23 23 24 24 24 24 24 24 24 24 24 23 23 23 22 22 22 22 22 21 20 19 19 19 19 19 18 18 18 18 17 17 17 17 17 18 18 17 17 17 17 17 18 18 18 18 19 19 19
18 18 18 19 19 19 19 19 18 19 19 20 21 22 23 23 23 23 22 22 21 21 21 21 21 22 22 22 23 23 24 24 24 24 24 24 24 24 24 24 23 24 24 24 23 23 23 23 23 23 22 22 22 22 21 20 19 19 19 19 19 18 18 17 17 17 17 17 17 17 17 17 17 17 17 17 17 17 17 18 18 18 18 19 19
18 18 19 19 19 19 19 19 19 20 21 22 22 22 22 22 21 21 21 21 21 22 22 22 22 23 23 23 23 23 23 24 24 24 24 24 24 24 23 23 23 24 24 24 23 22 22 22 22 22 22 22 21 21 20 19 19 19 19 19 19 18 17 17 17 17 16 16 16 16 16 16 16 16 17 17 17 17 17 17 17 18 18 19 19
19 19 19 19 19 20 20 20 20 21 22 22 22 22 22 21 21 21 21 21 22 23 23 23 23 23 23 23 23 23 23 23 23 23 23 23 23 23 22 23 24 24 23 23 22 22 22 23 22 22 21 21 21 20 20 19 19 19 19 19 18 17 17 16 16 16 16 16 16 16 15 16 16 16 17 17 17 17 17 17 17 17 18 18 18
19 19 19 19 19 19 20 20 20 21 21 21 21 21 21 21 21 22 22 23 23 23 23 23 24 23 22 22 23 23 23 23 23 22 22 22 22 22 22 22 23 22 22 22 22 22 22 22 22 21 21 21 20 20 19 19 19 19 18 18 17 17 16 16 15 15 15 15 15 15 15 15 16 16 16 17 17 17 17 17 17 17 17 17 17
19 19 19 19 19 19 19 19 19 19 19 19 20 20 21 21 22 23 23 23 23 23 24 24 23 22 22 22 23 22 22 22 22 21 21 21 21 21 21 21 21 21 21 21 22 22 22 21 21 20 20 20 20 19 19 19 19 18 18 17 16 16 15 15 15 15 15 15 15 15 15 15 16 16 16 16 17 17 17 16 16 16 16 16 16
19 19 19 18 18 18 18 18 18 19 19 20 20 21 21 22 22 23 23 23 23 23 23 23 22 22 23 22 22 22 22 21 20 20 19 19 19 19 19 20 20 20 21 21 21 21 21 20 20 20 19 19 19 19 18 18 18 17 17 16 16 15 15 15 14 14 14 14 14 15 15 15 16 16 16 16 16 16 16 16 15 15 15 15 15
19 19 19 18 18 18 18 19 19 20 21 21 22 22 23 23 23 24 24 24 23 22 22 22 22 22 22 21 21 21 21 20 19 19 18 18 18 18 19 19 20 20 20 20 20 20 19 19 19 19 18 18 18 17 17 17 17 16 16 15 15 14 14 14 14 14 14 14 14 15 15 16 16 16 16 16 16 16 15 15 15 15 15 15 15
19 19 18 19 19 19 20 21 21 21 22 24 24 24 24 24 24 24 23 22 21 21 21 22 22 22 21 21 21 21 20 19 19 18 18 18 18 18 18 19 19 19 19 19 19 18 18 17 17 17 17 17 17 17 17 16 16 16 15 14 14 14 14 14 14 14 14 14 15 15 15 16 16 15 15 15 15 15 15 15 14 14 14 14 14
19 19 19 20 20 20 21 22 22 23 24 24 24 23 23 23 23 23 22 21 21 21 22 22 21 20 20 21 21 20 19 19 19 18 18 18 18 18 18 18 18 18 18 18 17 17 17 16 16 16 16 16 16 16 16 16 16 15 14 14 14 14 14 14 14 14 14 15 15 15 15 15 15 15 15 15 14 14 14 14 14 14 13 13 13
19 20 20 20 21 21 22 22 23 23 22 22 22 21 22 22 22 22 21 21 21 21 21 21 20 20 20 20 20 19 19 19 18 18 17 17 17 17 17 17 17 17 17 16 16 16 16 15 15 15 15 15 16 16 16 16 15 14 14 14 13 13 13 13 14 14 14 15 15 15 15 15 15 14 15 15 14 14 14 14 13 13 13 13 13
20 20 21 21 21 21 21 22 21 21 21 21 21 20 20 21 21 21 21 21 21 20 20 20 20 20 19 18 18 18 17 17 17 17 17 17 16 16 16 15 15 15 15 15 15 15 15 15 14 14 14 15 15 15 15 15 14 14 14 13 13 13 13 13 14 14 14 15 15 15 15 15 14 14 15 14 14 14 13 13 13 12 12 12 12
20 20 21 21 21 21 21 20 20 20 20 20 19 19 19 19 20 20 20 20 20 19 19 19 18 18 17 17 17 16 16 16 16 16 16 16 15 15 15 15 14 14 14 14 14 14 14 14 14 14 14 14 14 14 14 13 13 13 13 13 13 13 13 13 14 14 14 15 15 15 15 14 14 14 14 14 13 13 13 13 12 12 12 11 11
20 20 21 21 20 20 20 19 19 19 19 18 17 17 18 18 19 19 19 18 18 18 18 18 18 17 16 16 16 16 15 15 15 15 15 15 14 14 14 14 14 13 13 13 14 14 14 14 14 13 13 14 14 14 13 13 12 12 12 13 13 13 13 13 14 14 14 14 15 14 14 14 13 13 13 13 12 12 12 12 12 11 11 11 11
19 19 19 19 19 18 18 18 18 18 17 17 16 16 17 17 18 18 18 17 17 17 17 17 17 16 16 16 15 15 15 15 15 15 14 14 14 14 14 14 14 13 13 13 13 14 14 13 13 13 13 13 13 13 13 12 12 12 12 12 12 13 13 13 13 14 14 14 14 13 13 12 12 12 11 11 11 11 11 11 11 11 10 10 10
16 16 17 17 17 17 17 17 17 17 16 16 16 16 16 17 17 17 17 17 17 17 16 16 16 16 16 16 16 15 15 15 15 14 14 14 14 14 14 14 14 14 13 13 13 13 13 13 13 13 13 13 13 13 12 12 12 12 12 12 12 12 13 13 13 13 13 13 13 12 11 11 11 10 10 10 10 10 10 10 10 10 9 9 9
16 16 16 16 16 16 16 17 17 17 16 16 17 16 16 16 17 16 16 16 16 16 16 16 16 17 17 17 16 16 16 15 15 15 15 15 15 15 15 14 14 14 14 14 14 14 13 13 13 13 13 13 13 13 12 12 12 11 11 11 12 12 12 13 13 13 13 12 12 11 10 10 10 9 9 9 9 9 9 9 9 9 9 8 8
Wind_Direction
230 233 235 238 241 244 246 247 247 248 249 250 252 254 258 261 263 266 268 272 274 275 277 277 277 278 279 279 280 277 274 274 276 278 279 279 277 276 275 276 275 274 275 275 275 276 277 277 277 276 276 277 279 281 282 284 286 289 290 291 291 292 292 294 296 296 297 299 299 299 299 299 298 298 297 296 296 295 294 293 292 291 290 288 285
228 232 234 237 241 245 248 249 250 251 251 252 253 255 259 261 263 266 268 270 273 275 276 277 278 279 279 279 280 279 275 274 276 278 279 279 277 275 274 272 271 271 273 274 274 275 276 276 276 275 276 277 278 281 283 284 286 288 290 291 292 292 291 292 295 296 297 298 299 298 299 299 298 298 297 296 296 296 295 294 292 291 289 287 284
228 232 234 238 242 246 250 252 251 251 252 253 254 255 259 262 263 268 270 271 273 276 277 279 281 282 280 279 281 281 278 276 276 276 278 278 277 275 273 271 269 268 269 271 273 275 275 275 275 276 276 277 278 281 284 285 286 288 290 292 292 292 292 291 293 295 296 296 297 297 298 298 298 297 296 296 296 296 295 293 292 290 289 286 284
229 234 237 240 244 249 253 254 252 253 253 252 253 256 261 263 266 271 274 273 274 277 280 283 285 284 281 279 279 279 277 276 276 276 276 276 276 275 273 271 269 268 268 270 271 273 274 274 275 276 277 278 279 282 284 284 286 288 290 292 293 293 293 292 292 294 295 295 296 296 297 298 297 296 296 296 295 295 294 293 291 290 288 287 285
231 236 240 243 248 253 256 256 255 254 252 251 251 256 261 267 273 279 279 275 274 278 282 284 285 283 280 278 276 276 275 274 276 278 277 275 275 274 272 270 269 268 267 268 270 271 273 274 275 276 277 278 279 282 283 284 286 287 289 292 294 294 294 293 293 293 294 295 296 296 297 298 298 297 296 296 296 295 294 293 291 289 288 287 286
234 238 243 246 250 254 257 259 258 254 253 253 253 256 261 268 280 288 287 280 276 279 282 284 285 284 282 280 276 274 274 275 276 277 276 275 275 273 271 269 268 268 267 267 268 270 272 274 275 277 277 278 279 281 283 284 286 287 289 292 295 295 295 294 294 294 294 295 296 297 298 298 298 298 297 297 297 296 295 294 291 290 289 287 287
236 240 244 248 251 253 256 260 260 257 257 256 254 255 260 267 280 290 293 288 283 283 285 284 284 284 284 283 278 273 274 278 280 279 278 277 276 274 271 268 267 267 267 267 268 269 272 274 276 277 278 278 278 280 282 284 286 287 289 292 295 296 296 296 294 294 295 296 297 298 299 298 297 298 298 298 298 297 296 295 293 291 290 288 287
238 242 246 249 252 254 257 260 260 261 262 258 253 254 259 267 277 284 290 292 288 286 288 288 284 281 280 282 280 277 278 281 282 280 279 278 276 275 272 268 266 266 266 267 268 270 272 274 277 279 278 278 278 280 281 283 284 287 289 291 294 296 297 297 294 293 296 298 299 299 299 298 297 298 299 300 299 297 296 295 294 293 291 289 287
241 244 247 249 253 257 259 260 261 266 268 262 257 257 262 269 275 279 285 291 291 289 290 289 284 279 279 281 283 282 282 283 282 279 278 277 276 275 273 269 267 266 265 266 268 270 273 275 277 279 279 279 280 282 283 283 284 287 288 290 294 296 296 296 295 294 297 299 299 299 299 298 298 299 299 300 299 298 297 296 294 293 292 290 288
241 244 247 250 254 258 260 262 264 267 270 268 263 261 264 269 273 277 281 287 291 292 292 289 284 280 280 282 284 285 284 284 282 279 277 277 276 275 272 270 268 267 265 265 268 271 274 276 278 280 281 280 281 284 285 284 284 286 288 289 293 295 295 295 294 295 297 299 299 298 297 297 298 298 299 299 299 299 298 297 295 293 292 290 289
241 244 248 251 254 258 262 264 264 266 268 267 265 263 264 267 271 275 279 283 288 291 290 288 286 283 282 284 286 286 285 282 280 279 277 276 276 275 273 270 269 268 265 265 268 272 274 277 279 282 283 281 282 286 286 284 285 285 286 288 292 295 296 295 294 295 297 297 297 296 296 297 297 297 298 298 299 299 298 297 296 294 293 291 290
241 243 246 250 254 259 263 263 263 265 265 265 266 265 265 266 269 273 277 281 285 287 286 286 286 285 284 285 286 286 284 281 279 279 277 275 275 276 274 272 270 268 265 265 269 273 276 279 281 283 283 282 283 286 286 286 286 285 284 287 291 294 296 295 295 296 297 296 296 296 296 296 297 297 297 298 299 298 298 297 296 295 293 291 290
240 242 245 251 256 260 262 262 262 265 266 268 269 268 267 267 269 272 277 280 282 283 284 284 285 286 285 286 287 286 283 280 279 278 277 274 274 275 275 274 272 269 266 267 270 273 276 279 282 284 285 284 285 286 287 288 288 285 284 288 291 293 295 295 295 295 296 296 295 295 295 296 296 297 297 297 298 298 297 297 296 295 293 291 291
240 243 248 255 260 262 263 263 264 266 268 270 270 269 270 271 271 273 276 280 281 283 284 284 285 286 286 286 288 286 282 278 277 278 276 272 271 272 274 276 275 271 269 269 271 273 276 281 283 284 285 286 287 288 288 288 288 286 286 289 292 294 296 296 295 295 295 295 295 295 295 295 295 296 296 297 297 297 296 296 296 295 293 292 292
243 247 252 258 263 264 265 265 265 267 268 270 270 270 273 274 274 275 278 281 282 284 285 286 286 286 286 285 286 286 282 277 275 276 274 270 270 271 273 277 276 271 270 272 272 275 278 282 283 284 286 286 287 288 289 289 289 288 287 289 293 295 296 295 295 295 295 295 296 295 295 295 294 295 296 297 296 295 295 295 294 294 293 292 293
249 252 256 261 264 265 266 265 266 267 269 270 271 272 274 277 278 278 280 283 284 285 287 287 286 286 285 284 284 284 281 276 274 274 272 270 270 271 274 279 277 272 271 273 274 276 279 281 282 284 286 285 285 287 289 289 289 289 290 292 294 296 296 295 294 294 295 295 295 295 294 294 294 294 295 296 295 295 295 294 294 293 293 293 294
254 257 260 264 265 265 265 265 265 267 269 271 272 273 275 277 279 281 282 284 285 286 287 287 286 285 284 283 282 282 280 276 273 271 271 270 272 274 277 278 277 273 272 274 276 278 280 281 283 285 286 285 285 286 287 288 289 290 292 294 294 295 295 295 294 294 294 294 294 293 293 293 293 294 295 294 294 295 295 295 294 294 294 294 295
255 260 263 265 265 264 264 264 265 267 270 272 273 275 276 276 278 281 284 285 286 286 287 287 285 284 283 281 280 280 279 276 272 270 271 273 275 277 277 276 275 275 276 278 280 280 280 281 283 285 285 285 286 287 288 289 291 292 293 294 294 294 295 295 295 294 294 294 293 292 291 292 293 294 294 294 293 294 295 295 294 295 294 294 295
256 261 264 264 264 264 264 264 265 268 272 274 275 276 276 276 278 281 283 286 286 286 286 285 284 283 283 281 278 278 278 276 272 271 273 275 276 277 277 276 278 279 279 281 282 282 282 284 284 284 285 286 287 288 289 291 292 292 293 294 294 294 295 295 294 295 295 294 293 292 292 292 292 293 294 294 294 294 295 295 295 295 294 295 296
257 261 263 262 263 263 264 266 268 270 273 274 276 277 277 277 278 281 284 286 285 284 284 283 281 282 282 280 278 278 278 276 274 274 276 276 276 276 277 280 283 283 282 283 284 285 285 285 285 285 286 287 288 289 290 291 293 293 294 294 294 295 295 295 294 295 295 294 293 292 292 292 293 294 294 295 295 296 296 295 295 295 295 295 296
257 258 260 261 262 263 265 268 271 273 274 275 277 277 277 278 280 281 283 284 283 281 281 279 278 279 280 278 278 278 278 277 277 277 276 275 276 277 279 282 285 285 284 285 286 286 285 285 286 286 287 288 290 290 292 293 294 294 294 294 295 295 295 295 295 295 294 293 292 292 292 292 293 294 294 295 296 297 297 296 296 295 295 296 297
254 256 259 262 264 266 268 269 271 274 275 276 276 277 277 278 278 278 279 281 280 279 278 276 276 277 277 277 278 278 277 278 278 277 274 273 276 278 281 284 285 285 286 286 286 286 286 287 289 289 289 290 291 292 294 295 295 295 295 296 296 296 296 296 296 296 294 293 292 291 291 292 293 294 295 295 296 297 297 297 297 296 296 297 297
252 255 260 264 267 269 269 269 271 274 275 275 275 276 276 275 274 275 277 278 277 275 274 274 275 276 276 277 278 278 278 278 279 277 275 276 279 281 284 286 286 285 286 286 285 286 288 290 291 291 291 292 293 294 295 295 296 296 297 297 297 297 297 297 296 296 294 293 292 291 291 292 294 294 295 295 296 297 297 297 297 297 297 297 298
254 257 261 264 268 271 270 271 273 274 274 274 275 274 271 270 271 274 275 274 273 273 272 273 274 276 277 277 279 280 281 280 280 279 278 280 283 286 286 286 285 285 286 287 287 289 291 292 292 293 293 294 294 295 295 295 296 297 298 297 297 297 297 297 297 296 294 293 292 291 292 293 294 294 295 296 297 298 298 297 298 298 298 299 300
255 258 263 266 269 272 272 272 273 274 274 273 271 268 267 268 271 273 271 270 270 271 271 272 274 275 276 278 280 282 282 282 282 283 282 284 286 287 286 283 284 286 288 288 290 291 292 293 293 293 294 294 295 296 296 296 297 298 298 298 298 298 298 298 298 296 295 293 292 292 292 293 294 295 296 298 299 299 298 298 299 300 300 301 303
258 262 267 269 270 272 273 272 273 273 272 269 266 265 266 269 271 270 269 268 269 270 271 273 273 274 276 279 280 282 283 284 285 287 286 286 286 286 283 281 284 287 290 290 291 292 293 293 293 293 294 295 296 297 298 298 297 298 298 299 299 299 299 299 298 297 295 294 293 293 293 294 296 297 298 299 300 299 299 299 300 301 303 304 306
263 267 271 272 271 272 273 271 271 270 267 265 264 265 267 269 269 267 267 268 269 270 272 273 275 277 279 280 281 282 284 285 286 288 286 284 285 284 282 282 285 289 291 291 292 293 293 294 294 295 296 296 296 297 298 299 299 299 299 299 299 299 300 300 299 297 296 295 294 294 295 296 298 299 299 300 300 300 301 301 301 303 304 306 308
266 269 273 274 272 272 270 267 267 267 264 263 264 266 268 269 268 267 269 270 271 271 272 274 277 280 281 281 282 284 285 285 286 286 285 284 285 284 283 285 288 291 292 292 292 293 294 295 296 297 297 297 297 298 298 298 299 300 299 299 300 300 300 300 299 297 296 296 296 296 297 298 298 299 300 301 301 302 303 303 304 304 306 308 309
269 271 272 272 271 268 265 263 264 264 263 263 265 267 269 270 269 270 272 273 274 274 275 276 278 281 281 282 282 283 284 285 286 288 287 287 286 284 285 288 291 293 294 294 293 293 295 297 298 298 297 297 298 298 298 298 299 299 299 300 301 301 301 300 299 297 297 297 298 298 298 298 299 300 301 302 303 304 305 306 306 306 307 309 310
272 271 271 271 268 264 262 262 263 263 264 264 265 266 269 271 271 271 272 274 276 276 275 276 279 282 283 284 284 285 287 288 289 289 288 286 285 286 289 291 293 293 294 294 293 294 295 297 298 298 298 298 298 298 298 299 300 300 300 301 302 301 300 299 298 298 299 299 299 298 298 299 300 301 303 304 305 306 307 307 308 309 309 310 311
270 269 269 267 263 261 261 263 263 263 265 265 265 265 267 269 270 271 273 274 276 275 274 275 279 283 285 287 287 288 290 290 289 288 285 284 286 288 290 292 293 293 293 293 294 295 296 298 298 299 298 298 297 297 298 299 300 301 301 302 302 301 300 299 300 300 301 300 300 299 300 300 301 303 304 305 306 307 309 309 310 311 311 312 312
267 267 266 263 260 260 262 263 264 264 265 266 265 265 266 266 267 269 272 274 275 275 276 278 282 284 286 287 288 289 289 288 287 285 284 284 286 289 290 291 291 292 293 294 295 295 296 297 298 298 298 297 297 297 298 299 300 301 302 302 302 301 300 300 301 302 301 301 301 301 301 302 303 304 305 306 307 309 310 312 313 314 314 314 315
266 265 263 261 260 262 264 265 266 267 268 268 267 266 266 266 267 269 272 274 275 276 278 281 284 284 285 287 288 288 287 286 285 284 284 284 286 287 289 291 292 293 294 295 295 295 296 297 297 297 296 297 298 298 298 299 300 301 301 301 301 300 300 301 302 301 301 301 302 302 302 303 304 305 306 307 308 309 312 313 314 315 316 317 318
265 264 263 261 261 263 264 265 267 269 269 267 266 266 267 268 268 269 272 274 275 276 278 281 283 284 285 287 288 287 287 286 285 284 284 284 285 287 289 291 292 293 294 294 295 295 296 295 295 295 295 296 297 298 298 297 298 299 300 300 300 299 300 301 301 300 301 301 302 302 303 304 305 306 307 308 309 310 312 314 314 316 317 319 320
265 264 263 262 262 263 264 265 266 267 267 267 268 268 269 269 269 270 273 275 276 276 277 279 282 284 287 288 289 289 288 287 286 285 284 283 284 287 290 292 292 292 293 294 294 295 295 294 294 294 294 295 296 296 296 296 296 298 299 299 299 299 299 299 299 300 301 302 302 303 304 304 306 307 308 309 310 311 312 314 314 316 317 318 320
265 264 263 263 262 263 264 265 266 267 268 270 270 270 270 271 272 272 273 274 274 275 276 277 280 284 288 290 290 290 290 289 287 286 284 284 285 288 290 290 290 291 293 294 294 294 294 293 294 294 293 294 294 294 294 294 295 296 297 298 298 298 297 297 298 300 301 301 301 302 304 304 306 307 309 310 311 312 312 313 314 316 317 319 321
266 265 263 262 262 263 264 265 266 268 270 271 271 270 270 271 272 272 272 271 272 274 275 276 279 283 287 288 288 289 290 289 288 287 286 286 288 289 289 288 288 290 292 293 293 293 293 294 294 293 292 292 293 292 292 293 294 295 296 297 297 296 296 296 297 299 300 301 301 302 303 304 306 308 309 310 311 312 312 313 314 315 317 320 321
265 264 263 262 263 264 265 266 268 269 271 271 270 270 269 269 269 270 271 271 273 275 275 276 279 283 285 285 286 287 288 288 288 288 287 287 288 288 287 287 288 290 291 292 293 293 294 294 294 292 291 291 291 291 291 293 293 294 295 295 295 294 294 295 296 296 298 300 301 302 303 304 305 308 309 309 310 311 312 313 314 315 316 319 321
261 261 262 263 265 266 267 269 271 273 273 272 271 269 268 268 268 269 271 273 274 275 276 278 281 282 284 285 285 285 286 287 289 289 287 286 285 286 286 287 288 289 290 292 293 293 293 294 293 291 291 290 290 290 291 293 293 293 293 293 293 292 293 294 294 295 296 298 300 302 303 304 305 307 308 308 309 310 311 312 313 314 315 318 320
259 259 261 262 264 267 269 271 273 274 273 272 272 271 271 271 271 271 272 273 274 275 278 280 281 282 284 285 284 284 287 289 289 288 287 285 284 284 285 286 288 290 291 292 293 293 293 293 293 292 291 290 289 290 291 292 292 292 292 291 291 291 292 292 292 294 296 298 300 302 303 304 305 306 307 308 308 309 310 310 312 314 315 316 318
257 259 261 262 264 267 269 272 274 276 275 273 273 273 272 272 272 272 273 274 275 277 278 280 280 282 284 283 282 284 289 290 289 287 286 285 284 285 286 287 289 291 291 292 293 293 293 293 293 292 290 289 289 290 291 291 291 291 290 289 289 289 290 290 291 293 295 297 300 302 303 304 306 306 306 307 308 308 308 309 311 313 314 316 318
256 258 260 262 264 267 270 273 276 278 277 276 275 274 271 270 272 273 274 275 275 275 276 278 280 282 282 281 281 285 289 290 288 286 286 286 286 286 287 288 290 291 291 293 294 294 293 293 292 291 290 290 290 291 291 291 290 289 288 288 288 288 289 289 290 292 295 296 299 301 303 305 306 306 306 306 307 307 307 309 311 312 314 316 318
256 258 260 262 266 269 272 274 276 278 278 278 277 274 271 271 273 274 274 272 272 274 276 278 279 280 279 280 284 287 288 288 287 286 286 286 286 286 287 289 290 291 292 294 295 294 294 293 291 290 290 290 290 291 291 291 289 288 287 287 287 287 288 289 289 292 294 296 298 301 302 304 305 305 305 306 306 306 306 308 310 312 313 314 317
256 259 262 265 268 272 274 275 276 278 278 277 276 275 273 273 273 272 270 269 271 275 277 277 278 279 280 282 284 285 286 286 286 285 285 284 284 286 288 290 292 293 294 295 295 294 294 293 291 290 291 290 291 292 292 290 288 287 286 287 286 286 287 288 289 291 293 296 298 300 302 303 304 304 305 306 306 306 306 307 309 311 311 312 315
259 262 264 267 270 273 276 277 278 278 277 276 276 276 275 273 270 268 268 269 272 274 275 276 278 281 283 283 283 282 283 284 283 283 283 283 283 285 288 290 293 295 296 296 295 294 294 292 291 291 291 291 292 293 292 290 288 286 285 285 285 286 286 287 289 291 293 296 298 300 301 303 304 303 304 306 305 304 305 306 306 308 310 310 313
261 263 265 269 273 276 278 278 277 277 277 276 276 275 273 271 268 266 269 271 272 272 273 276 279 281 282 282 281 281 281 282 281 282 282 282 282 284 287 290 293 295 297 297 296 296 294 293 292 292 292 293 294 294 293 290 288 285 284 284 284 285 286 287 289 291 293 295 298 299 301 303 304 304 304 305 304 302 303 303 304 306 308 309 311
263 265 269 273 276 278 277 276 275 275 275 275 274 273 271 270 268 268 270 271 271 271 274 276 279 280 281 280 280 280 281 282 282 282 282 281 281 283 286 289 292 294 296 296 296 296 295 294 293 294 294 294 295 295 293 291 288 286 285 284 283 284 286 288 289 291 293 295 297 299 301 302 304 304 304 304 303 302 301 301 302 303 305 307 309
266 268 271 273 274 273 272 272 272 273 272 271 271 271 271 270 270 270 270 270 270 271 273 276 277 278 279 278 278 279 281 281 282 283 282 281 280 282 285 287 290 292 294 296 296 297 296 294 293 294 294 294 295 295 293 291 289 288 286 285 285 286 287 288 289 292 295 296 297 298 301 303 304 304 305 305 304 304 303 301 300 301 302 304 307
267 268 269 269 269 269 269 270 271 270 269 269 270 270 270 269 269 269 270 270 271 273 275 277 277 277 277 276 277 278 279 280 281 282 281 279 279 281 283 285 287 290 292 294 295 296 296 294 293 293 293 294 294 294 293 290 289 289 288 288 288 288 288 289 290 292 295 296 297 298 300 302 303 305 306 306 306 306 305 304 302 300 300 302 304
267 268 268 268 268 269 269 269 269 268 268 268 269 269 268 268 268 268 269 271 273 274 275 276 276 275 275 275 276 277 278 278 279 279 278 276 278 281 283 283 285 288 290 292 293 294 294 294 293 292 293 293 293 292 291 290 289 290 290 290 290 290 290 290 291 292 294 295 295 296 298 301 303 305 308 309 309 308 308 307 306 303 301 301 302
269 269 269 269 269 269 269 269 268 268 267 267 268 267 267 267 268 270 272 273 274 275 276 276 275 274 273 274 275 276 276 276 275 275 275 276 278 280 282 282 284 287 288 289 290 290 290 290 290 291 291 292 292 290 289 288 288 290 292 292 291 291 291 292 292 293 293 293 292 292 295 299 302 306 310 312 312 312 310 309 308 305 302 302 302